Hourly Data Report for November 13, 2019

All times are specified in Local Standard Time (LST). Add 1 hour to adjust for Daylight Saving Time where and when it is observed.

QUALICUM BEACH AIRPORT
BRITISH COLUMBIA
Current Station Operator: ECCC - MSC

49°20'14.000" N
124°23'38.000" W
58.20 m
1026562
71766
VOQ

Download Data

Hourly Data (November 2019)
Hourly Data Report for November 13, 2019
TIME Temp Definition
°C
Dew Point Definition
°C
Rel Hum Definition
%
Wind Dir Definition
10's deg

Wind Spd Definition
km/h
Visibility Definition
km
Stn Press Definition
kPa
Hmdx Definition


Wind Chill Definition


Weather Definition


00:00 8.8 8.4 97 30 4   101.53     LegendNANA
01:00 8.9 8.5 97 28 2   101.54     LegendNANA
02:00 8.8 8.4 97 29 4   101.54     LegendNANA
03:00 8.7 8.3 97 28 3   101.56     LegendNANA
04:00 8.5 8.1 97 5 2   101.52     LegendNANA
05:00 8.5 8.1 97   0   101.52     LegendNANA
06:00 8.5 8.1 97 25 1   101.51     LegendNANA
07:00 8.4 8.0 97   0   101.54     LegendNANA
08:00 8.4 8.0 98   0   101.54     LegendNANA
09:00 8.9 8.5 98   0   101.56     LegendNANA
10:00 9.4 9.0 97 5 2   101.56     LegendNANA
11:00 9.6 9.0 96 10 6   101.55     LegendNANA
12:00 10.1 9.1 94 10 6   101.48     LegendNANA
13:00 9.8 8.3 90 10 7   101.37     LegendNANA
14:00 10.2 8.6 90 4 5   101.36     LegendNANA
15:00 9.6 8.0 90 1 3   101.34     LegendNANA
16:00 9.3 7.9 91 7 2   101.27     LegendNANA
17:00 8.0 7.2 95 0 1   101.24     LegendNANA
18:00 6.6 6.1 96 26 1   101.18     LegendNANA
19:00 6.0 5.5 97   0   101.17     LegendNANA
20:00 5.5 5.1 97 26 1   101.15     LegendNANA
21:00 4.4 4.1 98 0 1   101.13     LegendNANA
22:00 5.4 5.1 98 25 1   101.13     LegendNANA
23:00 5.8 5.4 98 0 1   101.10     LegendNANA

Notes on Data Quality.

Legend

  • E = Estimated
  • M = Missing
  • NA = Not Available
Date modified: